sat.trackr.live / text

‹ back to catalog

STARLINK-31640

NORAD 59748 · 2024-090U

PAYLOAD ACTIVE UNKNOWN

§ Identity

Operator
Country
US
Launch date
2024-05-13
Launch site
AFETR
Launch vehicle
Mass (kg)
RCS (m²)

Purposes: comms

External: N2YO · Heavens-Above · Gunter

§ Orbital elements

Epoch: 2026-09-21T10:01:42.624480Z

Period
94.27 min
Inclination
43.0013°
Eccentricity
0.0001069
Mean motion
15.27570485 rev/d
Perigee alt
482.3 km
Apogee alt
483.8 km
Semi-major
6,861.2 km
B*
3.2916e-5
RAAN
158.1748°
Arg perigee
271.7670°
Mean anomaly
88.3059°
Rev number
13,337

§ Raw data

STARLINK-316401 59748U 24090U   26264.41785445  .00000644  00000+0  32916-4 0  99942 59748  43.0013 158.1748 0001069 271.7670  88.3059 15.27570485133370

JSON: /api/v1/satellites/59748 · /tle

For live sub-satellite position, see the globe view (requires WebGL).

§ Visibility from observer

Set your observer location to see the next 7 days of passes ≥ 10°. The values pass through the URL so the page stays shareable.

No JS? Fill the form by hand. The geolocation button needs JavaScript.